^^
Station Historical Data
Daily Summary for February 6, 2018 Units:  Metric    English   Both
« Previous Day
Next Day »
Daily Weekly Monthly Yearly Custom
  High: Low: Average:
Temperature: -17.8 °C -23.9 °C -22.9 °C
Dew Point: -17.8 °C -24.6 °C -23.6 °C
Humidity: Humidity% 89% 90%
Wind Speed: 0km/h 0km/h 3.5km/h
Wind Gust: 0km/h - -
Wind- - SSE
Pressure: 0 hPa 34164.7 hPa -
Precipitation: 20.32 mm    
Historical Graphs
 
 
Tabular Data for February 6, 2018
Time Temperature Dew Point Pressure Wind Wind Speed Wind Gust Humidity Rainfall Rate (Hourly) solar Conditions
-17.8 °C -17.8 °C 0 hPa Calm     Humidity% 0 mm SoftwareType W/m2 Conditions
00:04 -23.6 °C -24.3 °C 34520.3 hPa NNW 0.3 km/h 9 km/h 90% 0 mm WeatherDisplay:10.37 W/m2 FEW
00:09 -23.6 °C -24.3 °C 34510.1 hPa NW 6 km/h 9 km/h 90% 0 mm WeatherDisplay:10.37 W/m2 FEW
00:14 -23.6 °C -24.3 °C 34510.1 hPa NW 6 km/h 9 km/h 90% 0 mm WeatherDisplay:10.37 W/m2 FEW
00:15 -23.7 °C -24.4 °C 34510.1 hPa NW 3.4 km/h 9 km/h 90% 0 mm WeatherDisplay:10.37 W/m2 FEW
00:20 -23.7 °C -24.4 °C 34510.1 hPa NW 8 km/h 11.9 km/h 90% 0 mm WeatherDisplay:10.37 W/m2 FEW
00:25 -23.7 °C -24.4 °C 34510.1 hPa NNW 0.5 km/h 10.3 km/h 90% 0 mm WeatherDisplay:10.37 W/m2 FEW
00:30 -23.7 °C -24.4 °C 34496.6 hPa NNW 4.7 km/h 5.1 km/h 90% 0 mm WeatherDisplay:10.37 W/m2 FEW
00:35 -23.7 °C -24.5 °C 34496.6 hPa NW 0.5 km/h 7.7 km/h 90% 0 mm WeatherDisplay:10.37 W/m2 FEW
00:40 -23.7 °C -24.5 °C 34496.6 hPa Calm   3.1 km/h 90% 0 mm WeatherDisplay:10.37 W/m2 FEW
00:45 -23.8 °C -24.5 °C 34496.6 hPa NNW 4.2 km/h 17.9 km/h 90% 0 mm WeatherDisplay:10.37 W/m2 FEW
00:50 -23.8 °C -24.5 °C 34496.6 hPa North 1.3 km/h 6 km/h 90% 0 mm WeatherDisplay:10.37 W/m2 FEW
00:55 -23.8 °C -24.6 °C 34496.6 hPa NW 5.1 km/h 15 km/h 90% 0 mm WeatherDisplay:10.37 W/m2 FEW
01:00 -23.8 °C -24.6 °C 34486.4 hPa NW 4.3 km/h 15 km/h 90% 0 mm WeatherDisplay:10.37 W/m2 FEW
01:05 -23.8 °C -24.6 °C 34486.4 hPa NNW 7.2 km/h 9 km/h 90% 0 mm WeatherDisplay:10.37 W/m2 FEW
01:10 -23.8 °C -24.6 °C 34476.3 hPa NNW 4.7 km/h 10.3 km/h 90% 0 mm WeatherDisplay:10.37 W/m2 FEW
01:15 -23.8 °C -24.6 °C 34476.3 hPa NNW 3.4 km/h 15 km/h 90% 0 mm WeatherDisplay:10.37 W/m2 FEW
01:20 -23.8 °C -24.6 °C 34462.7 hPa NNW 0.8 km/h 15.6 km/h 90% 0 mm WeatherDisplay:10.37 W/m2 FEW
01:25 -23.8 °C -24.6 °C 34462.7 hPa NNW 3.4 km/h 9 km/h 90% 0 mm WeatherDisplay:10.37 W/m2 FEW
01:30 -23.9 °C -24.6 °C 34462.7 hPa NNW 2.6 km/h 9 km/h 90% 0 mm WeatherDisplay:10.37 W/m2 FEW
01:35 -23.9 °C -24.6 °C 34462.7 hPa NNW 6 km/h 11.9 km/h 90% 0 mm WeatherDisplay:10.37 W/m2 FEW
01:40 -23.8 °C -24.5 °C 34462.7 hPa NNW 1.6 km/h 9 km/h 91% 0 mm WeatherDisplay:10.37 W/m2 FEW
01:45 -23.9 °C -24.6 °C 34462.7 hPa NNW 0.3 km/h 5.1 km/h 90% 0 mm WeatherDisplay:10.37 W/m2 FEW
01:50 -23.8 °C -24.6 °C 34462.7 hPa Calm     90% 0 mm WeatherDisplay:10.37 W/m2 FEW
01:55 -23.8 °C -24.6 °C 34462.7 hPa Calm     90% 0 mm WeatherDisplay:10.37 W/m2 FEW
02:00 -23.8 °C -24.5 °C 34452.6 hPa NNW 4.3 km/h 9 km/h 91% 0 mm WeatherDisplay:10.37 W/m2 FEW
02:05 -23.8 °C -24.6 °C 34452.6 hPa NNW 4.3 km/h 15 km/h 90% 0 mm WeatherDisplay:10.37 W/m2 FEW
02:10 -23.8 °C -24.6 °C 34452.6 hPa NNW 4.7 km/h 9 km/h 90% 0 mm WeatherDisplay:10.37 W/m2 FEW
02:15 -23.8 °C -24.6 °C 34442.4 hPa NNW 1.3 km/h 9 km/h 90% 0 mm WeatherDisplay:10.37 W/m2 FEW
02:20 -23.8 °C -24.6 °C 34442.4 hPa NNW 8 km/h 15 km/h 90% 0 mm WeatherDisplay:10.37 W/m2 FEW
02:25 -23.8 °C -24.5 °C 34442.4 hPa NNW 2.9 km/h 9 km/h 90% 0 mm WeatherDisplay:10.37 W/m2 FEW
02:30 -23.8 °C -24.5 °C 34442.4 hPa NW 1 km/h 9 km/h 90% 0 mm WeatherDisplay:10.37 W/m2 FEW
02:35 -23.8 °C -24.5 °C 34442.4 hPa NW 0.8 km/h 3.1 km/h 90% 0 mm WeatherDisplay:10.37 W/m2 FEW
02:40 -23.7 °C -24.5 °C 34428.8 hPa NNW 1.6 km/h 9 km/h 90% 0 mm WeatherDisplay:10.37 W/m2 FEW
02:45 -23.7 °C -24.5 °C 34428.8 hPa NNW 4.3 km/h 9 km/h 90% 0 mm WeatherDisplay:10.37 W/m2 FEW
02:50 -23.7 °C -24.5 °C 34428.8 hPa NNW 9.8 km/h 15 km/h 90% 0 mm WeatherDisplay:10.37 W/m2 FEW
02:55 -23.7 °C -24.4 °C 34428.8 hPa NNW 10.1 km/h 20.9 km/h 90% 0 mm WeatherDisplay:10.37 W/m2 FEW
03:00 -23.7 °C -24.4 °C 34428.8 hPa NNW 3.9 km/h 11.9 km/h 90% 0 mm WeatherDisplay:10.37 W/m2 FEW
03:05 -23.7 °C -24.4 °C 34418.7 hPa NNE 0.5 km/h 6 km/h 90% 0 mm WeatherDisplay:10.37 W/m2 FEW
03:10 -23.7 °C -24.4 °C 34418.7 hPa NNW 4.2 km/h 9 km/h 90% 0 mm WeatherDisplay:10.37 W/m2 FEW
03:15 -23.7 °C -24.4 °C 34418.7 hPa NW 5 km/h 11.9 km/h 90% 0 mm WeatherDisplay:10.37 W/m2 FEW
03:20 -23.7 °C -24.4 °C 34405.1 hPa NW 0.8 km/h 6 km/h 90% 0 mm WeatherDisplay:10.37 W/m2 FEW
03:25 -23.7 °C -24.4 °C 34405.1 hPa NW 0.5 km/h 6 km/h 90% 0 mm WeatherDisplay:10.37 W/m2 FEW
03:30 -23.7 °C -24.4 °C 34405.1 hPa NW 4.2 km/h 15 km/h 90% 0 mm WeatherDisplay:10.37 W/m2 FEW
03:35 -23.7 °C -24.4 °C 34395 hPa NNW 4.3 km/h 11.9 km/h 90% 0 mm WeatherDisplay:10.37 W/m2 FEW
03:40 -23.7 °C -24.4 °C 34405.1 hPa North 5.5 km/h 9 km/h 90% 0 mm WeatherDisplay:10.37 W/m2 FEW
03:45 -23.7 °C -24.4 °C 34395 hPa North 3.9 km/h 11.9 km/h 90% 0 mm WeatherDisplay:10.37 W/m2 FEW
03:50 -23.6 °C -24.3 °C 34395 hPa NNW 3.4 km/h 9 km/h 90% 0 mm WeatherDisplay:10.37 W/m2 FEW
03:55 -23.6 °C -24.3 °C 34395 hPa NNW 2.3 km/h 10.3 km/h 90% 0 mm WeatherDisplay:10.37 W/m2 FEW
04:00 -23.6 °C -24.3 °C 34395 hPa NNW 4.2 km/h 11.9 km/h 90% 0 mm WeatherDisplay:10.37 W/m2 FEW
04:05 -23.6 °C -24.3 °C 34395 hPa NNW 3.1 km/h 6 km/h 90% 0 mm WeatherDisplay:10.37 W/m2 FEW
04:10 -23.6 °C -24.3 °C 34395 hPa Calm     90% 0 mm WeatherDisplay:10.37 W/m2 FEW
04:15 -23.6 °C -24.3 °C 34395 hPa NNW 1.8 km/h   90% 0 mm WeatherDisplay:10.37 W/m2 FEW
04:20 -23.6 °C -24.4 °C 34395 hPa NNW 5 km/h 9 km/h 89% 0 mm WeatherDisplay:10.37 W/m2 FEW
04:25 -23.6 °C -24.4 °C 34384.8 hPa Calm     89% 0 mm WeatherDisplay:10.37 W/m2 FEW
04:30 -23.6 °C -24.3 °C 34384.8 hPa Calm   6 km/h 89% 0 mm WeatherDisplay:10.37 W/m2 FEW
04:35 -23.6 °C -24.3 °C 34384.8 hPa NNW 10.3 km/h 23.8 km/h 89% 0 mm WeatherDisplay:10.37 W/m2 FEW
04:40 -23.6 °C -24.3 °C 34384.8 hPa NNW 6 km/h 10.3 km/h 89% 0 mm WeatherDisplay:10.37 W/m2 FEW
04:45 -23.5 °C -24.3 °C 34371.3 hPa Calm     89% 0 mm WeatherDisplay:10.37 W/m2 FEW
04:50 -23.5 °C -24.3 °C 34361.1 hPa NW 9.3 km/h 20.9 km/h 89% 0 mm WeatherDisplay:10.37 W/m2 FEW
04:55 -23.5 °C -24.3 °C 34347.6 hPa NNW 6.3 km/h 9 km/h 89% 0 mm WeatherDisplay:10.37 W/m2 FEW
05:00 -23.5 °C -24.3 °C 34347.6 hPa NNW 6.4 km/h 23.8 km/h 89% 0 mm WeatherDisplay:10.37 W/m2 FEW
05:05 -23.6 °C -24.3 °C 34337.4 hPa NNW 4.7 km/h 11.9 km/h 89% 0 mm WeatherDisplay:10.37 W/m2 FEW
05:10 -23.5 °C -24.3 °C 34337.4 hPa NNW 0.3 km/h 5.1 km/h 89% 0 mm WeatherDisplay:10.37 W/m2 FEW
05:15 -23.5 °C -24.3 °C 34337.4 hPa NNW 2.1 km/h 23.8 km/h 89% 0 mm WeatherDisplay:10.37 W/m2 FEW
05:20 -23.5 °C -24.3 °C 34337.4 hPa NNW 1.8 km/h 9 km/h 89% 0 mm WeatherDisplay:10.37 W/m2 FEW
05:25 -23.5 °C -24.3 °C 34337.4 hPa NNW 4.2 km/h 9 km/h 89% 0 mm WeatherDisplay:10.37 W/m2 FEW
05:30 -23.5 °C -24.3 °C 34337.4 hPa NNW 0.3 km/h 7.7 km/h 89% 0 mm WeatherDisplay:10.37 W/m2 FEW
05:35 -23.5 °C -24.3 °C 34337.4 hPa NNW 3.1 km/h 9 km/h 89% 0 mm WeatherDisplay:10.37 W/m2 FEW
05:40 -23.5 °C -24.3 °C 34337.4 hPa Calm     89% 0 mm WeatherDisplay:10.37 W/m2 FEW
05:45 -23.5 °C -24.3 °C 34337.4 hPa Calm   9 km/h 90% 0 mm WeatherDisplay:10.37 W/m2 FEW
05:50 -23.5 °C -24.3 °C 34337.4 hPa NE 1.6 km/h 10.3 km/h 90% 0 mm WeatherDisplay:10.37 W/m2 FEW
05:55 -23.5 °C -24.3 °C 34327.3 hPa NNW 1.8 km/h 9 km/h 90% 0 mm WeatherDisplay:10.37 W/m2 FEW
06:00 -23.6 °C -24.3 °C 34327.3 hPa NNW 2.1 km/h 9 km/h 90% 0 mm WeatherDisplay:10.37 W/m2 FEW
06:05 -23.6 °C -24.3 °C 34327.3 hPa NNW 1.3 km/h 6 km/h 90% 0 mm WeatherDisplay:10.37 W/m2 FEW
06:10 -23.6 °C -24.3 °C 34327.3 hPa NNW 2.6 km/h 9 km/h 90% 0 mm WeatherDisplay:10.37 W/m2 FEW
06:15 -23.6 °C -24.3 °C 34327.3 hPa NNW 6.4 km/h 9 km/h 90% 0 mm WeatherDisplay:10.37 W/m2 FEW
06:20 -23.6 °C -24.3 °C 34327.3 hPa NNW 2.3 km/h 10.3 km/h 90% 0 mm WeatherDisplay:10.37 W/m2 FEW
06:25 -23.6 °C -24.3 °C 34313.7 hPa NNW 1.8 km/h 15.6 km/h 90% 0 mm WeatherDisplay:10.37 W/m2 FEW
06:30 -23.6 °C -24.3 °C 34313.7 hPa NNW 1.6 km/h 20.9 km/h 90% 0 mm WeatherDisplay:10.37 W/m2 FEW
06:35 -23.6 °C -24.3 °C 34313.7 hPa Calm     90% 0 mm WeatherDisplay:10.37 W/m2 FEW
06:40 -23.6 °C -24.3 °C 34313.7 hPa NNW 0.8 km/h 6 km/h 90% 0 mm WeatherDisplay:10.37 W/m2 FEW
06:45 -23.6 °C -24.3 °C 34313.7 hPa Calm     90% 0 mm WeatherDisplay:10.37 W/m2 FEW
06:50 -23.6 °C -24.3 °C 34313.7 hPa Calm     90% 0 mm WeatherDisplay:10.37 W/m2 FEW
06:55 -23.6 °C -24.3 °C 34313.7 hPa Calm     91% 0 mm WeatherDisplay:10.37 W/m2 FEW
07:00 -23.6 °C -24.2 °C 34303.6 hPa NNW 5 km/h 9 km/h 91% 0 mm WeatherDisplay:10.37 W/m2 FEW
07:05 -23.6 °C -24.2 °C 34303.6 hPa Calm     91% 0 mm WeatherDisplay:10.37 W/m2 FEW
07:10 -23.6 °C -24.2 °C 34303.6 hPa Calm     91% 0 mm WeatherDisplay:10.37 W/m2 FEW
07:15 -23.6 °C -24.2 °C 34303.6 hPa NNW 0.3 km/h 5.1 km/h 91% 7.62 mm WeatherDisplay:10.37 W/m2 RA
07:20 -23.6 °C -24.2 °C 34303.6 hPa Calm     91% 7.62 mm WeatherDisplay:10.37 W/m2 RA
07:25 -23.5 °C -24.2 °C 34303.6 hPa Calm     91% 7.62 mm WeatherDisplay:10.37 W/m2 FEW
07:30 -23.5 °C -24.2 °C 34303.6 hPa Calm     91% 7.62 mm WeatherDisplay:10.37 W/m2 FEW
07:35 -23.5 °C -24.2 °C 34303.6 hPa NNW 1.6 km/h 6 km/h 91% 7.62 mm WeatherDisplay:10.37 W/m2 FEW
07:40 -23.5 °C -24.2 °C 34293.4 hPa NNW 2.9 km/h 9 km/h 91% 7.62 mm WeatherDisplay:10.37 W/m2 FEW
07:45 -23.5 °C -24.1 °C 34293.4 hPa NNW 2.3 km/h 9 km/h 91% 7.62 mm WeatherDisplay:10.37 W/m2 FEW
07:50 -23.5 °C -24.2 °C 34293.4 hPa Calm     91% 7.62 mm WeatherDisplay:10.37 W/m2 FEW
07:55 -23.5 °C -24.2 °C 34279.9 hPa Calm     91% 7.62 mm WeatherDisplay:10.37 W/m2 FEW
08:00 -23.5 °C -24.1 °C 34279.9 hPa NNW 2.6 km/h 9 km/h 91% 7.62 mm WeatherDisplay:10.37 W/m2 FEW
08:05 -23.5 °C -24.1 °C 34279.9 hPa Calm     91% 7.62 mm WeatherDisplay:10.37 W/m2 FEW
08:10 -23.5 °C -24.1 °C 34279.9 hPa Calm     91% 7.62 mm WeatherDisplay:10.37 W/m2 FEW
08:15 -23.4 °C -24.1 °C 34279.9 hPa Calm     91% 0 mm WeatherDisplay:10.37 W/m2 FEW
08:20 -23.4 °C -24.1 °C 34279.9 hPa Calm     91% 0 mm WeatherDisplay:10.37 W/m2 FEW
08:25 -23.4 °C -24.1 °C 34279.9 hPa Calm     91% 0 mm WeatherDisplay:10.37 W/m2 FEW
08:30 -23.4 °C -24.1 °C 34279.9 hPa Calm     91% 0 mm WeatherDisplay:10.37 W/m2 FEW
08:35 -23.4 °C -24.1 °C 34279.9 hPa Calm     91% 0 mm WeatherDisplay:10.37 W/m2 FEW
08:40 -23.4 °C -24 °C 34279.9 hPa Calm     91% 0 mm WeatherDisplay:10.37 W/m2 FEW
08:45 -23.4 °C -24 °C 34279.9 hPa Calm   9 km/h 91% 0 mm WeatherDisplay:10.37 W/m2 FEW
08:50 -23.3 °C -24 °C 34279.9 hPa NNE 1.6 km/h 6 km/h 91% 0 mm WeatherDisplay:10.37 W/m2 FEW
08:55 -23.3 °C -23.9 °C 34279.9 hPa NNE 1.3 km/h 9 km/h 91% 0 mm WeatherDisplay:10.37 W/m2 FEW
09:00 -23.3 °C -24 °C 34279.9 hPa NNE 1 km/h 9 km/h 90% 0 mm WeatherDisplay:10.37 W/m2 FEW
09:05 -23.2 °C -24 °C 34279.9 hPa NE 6.4 km/h 11.9 km/h 90% 0 mm WeatherDisplay:10.37 W/m2 FEW
09:10 -23.2 °C -24 °C 34279.9 hPa NE 5.1 km/h 9 km/h 90% 0 mm WeatherDisplay:10.37 W/m2 FEW
09:15 -23.2 °C -23.9 °C 34269.7 hPa Calm     90% 0 mm WeatherDisplay:10.37 W/m2 FEW
09:20 -23.2 °C -23.9 °C 34269.7 hPa NE 2.6 km/h 9 km/h 90% 0 mm WeatherDisplay:10.37 W/m2 FEW
09:25 -23.2 °C -23.9 °C 34269.7 hPa NE 2.9 km/h 9 km/h 90% 0 mm WeatherDisplay:10.37 W/m2 FEW
09:30 -23.2 °C -23.9 °C 34269.7 hPa NE 2.6 km/h 9 km/h 90% 0 mm WeatherDisplay:10.37 W/m2 FEW
09:35 -23.2 °C -23.9 °C 34269.7 hPa NE 0.8 km/h 6 km/h 90% 0 mm WeatherDisplay:10.37 W/m2 FEW
09:40 -23.2 °C -23.9 °C 34269.7 hPa NE 2.9 km/h 7.7 km/h 90% 0 mm WeatherDisplay:10.37 W/m2 FEW
09:45 -23.1 °C -23.8 °C 34269.7 hPa Calm     90% 0 mm WeatherDisplay:10.37 W/m2 FEW
09:50 -23.1 °C -23.8 °C 34269.7 hPa NE 5.6 km/h 9 km/h 90% 0 mm WeatherDisplay:10.37 W/m2 FEW
09:55 -23.1 °C -23.8 °C 34269.7 hPa NE 4.7 km/h 9 km/h 90% 0 mm WeatherDisplay:10.37 W/m2 FEW
10:00 -23.1 °C -23.8 °C 34256.2 hPa ENE 8.5 km/h 10.3 km/h 90% 0 mm WeatherDisplay:10.37 W/m2 FEW
10:05 -23.1 °C -23.8 °C 34256.2 hPa Calm     90% 0 mm WeatherDisplay:10.37 W/m2 FEW
10:10 -23.1 °C -23.8 °C 34256.2 hPa ENE 4.2 km/h 10.3 km/h 90% 0 mm WeatherDisplay:10.37 W/m2 FEW
10:15 -23 °C -23.8 °C 34256.2 hPa Calm   9 km/h 90% 7.62 mm WeatherDisplay:10.37 W/m2 RA
10:20 -23 °C -23.8 °C 34256.2 hPa NE 6.3 km/h 9 km/h 90% 7.62 mm WeatherDisplay:10.37 W/m2 RA
10:25 -23 °C -23.7 °C 34256.2 hPa ENE 8 km/h 11.9 km/h 90% 7.62 mm WeatherDisplay:10.37 W/m2 FEW
10:30 -22.9 °C -23.7 °C 34256.2 hPa ENE 3.1 km/h 9 km/h 90% 7.62 mm WeatherDisplay:10.37 W/m2 FEW
10:35 -22.9 °C -23.7 °C 34256.2 hPa Calm     90% 7.62 mm WeatherDisplay:10.37 W/m2 FEW
10:41 -22.9 °C -23.7 °C 34246 hPa ENE 8.2 km/h 9 km/h 90% 7.62 mm WeatherDisplay:10.37 W/m2 FEW
10:46 -22.9 °C -23.7 °C 34246 hPa ENE 3.4 km/h 9 km/h 90% 7.62 mm WeatherDisplay:10.37 W/m2 FEW
10:51 -22.9 °C -23.6 °C 34246 hPa ENE 2.6 km/h 9 km/h 90% 7.62 mm WeatherDisplay:10.37 W/m2 FEW
10:56 -22.8 °C -23.6 °C 34246 hPa Calm     90% 7.62 mm WeatherDisplay:10.37 W/m2 FEW
11:01 -22.8 °C -23.6 °C 34246 hPa ENE 2.9 km/h 9 km/h 90% 7.62 mm WeatherDisplay:10.37 W/m2 FEW
11:07 -22.8 °C -23.6 °C 34246 hPa ENE 4.7 km/h 9 km/h 90% 7.62 mm WeatherDisplay:10.37 W/m2 FEW
11:12 -22.8 °C -23.6 °C 34246 hPa ENE 5 km/h 9 km/h 90% 7.62 mm WeatherDisplay:10.37 W/m2 FEW
11:17 -22.8 °C -23.6 °C 34235.8 hPa ENE 0.3 km/h 9 km/h 90% 0 mm WeatherDisplay:10.37 W/m2 FEW
11:22 -22.8 °C -23.5 °C 34235.8 hPa ENE 5 km/h 9 km/h 90% 0 mm WeatherDisplay:10.37 W/m2 FEW
11:27 -22.7 °C -23.5 °C 34235.8 hPa East 0.5 km/h 11.9 km/h 90% 0 mm WeatherDisplay:10.37 W/m2 FEW
11:32 -22.7 °C -23.5 °C 34235.8 hPa ENE 0.3 km/h 6 km/h 90% 0 mm WeatherDisplay:10.37 W/m2 FEW
11:37 -22.7 °C -23.5 °C 34235.8 hPa ENE 3.1 km/h 9 km/h 90% 0 mm WeatherDisplay:10.37 W/m2 FEW
11:42 -22.7 °C -23.5 °C 34235.8 hPa NE 8.5 km/h 15 km/h 90% 0 mm WeatherDisplay:10.37 W/m2 FEW
11:47 -22.7 °C -23.4 °C 34235.8 hPa NE 1 km/h 6 km/h 90% 0 mm WeatherDisplay:10.37 W/m2 FEW
11:52 -22.7 °C -23.4 °C 34235.8 hPa ENE 7.7 km/h 11.9 km/h 90% 0 mm WeatherDisplay:10.37 W/m2 FEW
11:57 -22.7 °C -23.4 °C 34222.3 hPa ENE 3.7 km/h 7.7 km/h 90% 0 mm WeatherDisplay:10.37 W/m2 FEW
12:02 -22.6 °C -23.4 °C 34222.3 hPa ENE 5.6 km/h 9 km/h 90% 0 mm WeatherDisplay:10.37 W/m2 FEW
12:07 -22.6 °C -23.3 °C 34222.3 hPa NE 8 km/h 10.3 km/h 90% 0 mm WeatherDisplay:10.37 W/m2 FEW
12:12 -22.6 °C -23.3 °C 34222.3 hPa ENE 7.2 km/h 11.9 km/h 90% 0 mm WeatherDisplay:10.37 W/m2 FEW
12:17 -22.6 °C -23.3 °C 34222.3 hPa ENE 5.5 km/h 17.9 km/h 90% 0 mm WeatherDisplay:10.37 W/m2 FEW
12:22 -22.6 °C -23.3 °C 34222.3 hPa ENE 3.1 km/h 9 km/h 90% 0 mm WeatherDisplay:10.37 W/m2 FEW
12:27 -22.6 °C -23.3 °C 34222.3 hPa ENE 7.2 km/h 12.9 km/h 90% 0 mm WeatherDisplay:10.37 W/m2 FEW
12:32 -22.6 °C -23.3 °C 34222.3 hPa ENE 8.2 km/h 15 km/h 90% 0 mm WeatherDisplay:10.37 W/m2 FEW
12:37 -22.6 °C -23.3 °C 34222.3 hPa ENE 2.3 km/h 9 km/h 90% 0 mm WeatherDisplay:10.37 W/m2 FEW
12:42 -22.6 °C -23.3 °C 34222.3 hPa ENE 8.9 km/h 9 km/h 90% 0 mm WeatherDisplay:10.37 W/m2 FEW
12:47 -22.5 °C -23.2 °C 34222.3 hPa ENE 8.5 km/h 20.9 km/h 90% 0 mm WeatherDisplay:10.37 W/m2 FEW
12:52 -22.5 °C -23.2 °C 34222.3 hPa ENE 9 km/h 23.8 km/h 90% 0 mm WeatherDisplay:10.37 W/m2 FEW
12:57 -22.4 °C -23.2 °C 34222.3 hPa ENE 8.9 km/h 23.8 km/h 90% 0 mm WeatherDisplay:10.37 W/m2 FEW
13:02 -22.4 °C -23.2 °C 34222.3 hPa ENE 7.2 km/h 15 km/h 90% 0 mm WeatherDisplay:10.37 W/m2 FEW
13:07 -22.4 °C -23.2 °C 34222.3 hPa ENE 1.8 km/h 9 km/h 90% 0 mm WeatherDisplay:10.37 W/m2 FEW
13:12 -22.4 °C -23.2 °C 34222.3 hPa ENE 9.7 km/h 15.6 km/h 90% 0 mm WeatherDisplay:10.37 W/m2 FEW
13:17 -22.4 °C -23.2 °C 34222.3 hPa ENE 4.2 km/h 15 km/h 90% 0 mm WeatherDisplay:10.37 W/m2 FEW
13:22 -22.4 °C -23.2 °C 34212.1 hPa ENE 1.8 km/h 6 km/h 90% 0 mm WeatherDisplay:10.37 W/m2 FEW
13:27 -22.4 °C -23.2 °C 34212.1 hPa ENE 7.2 km/h 9 km/h 90% 0 mm WeatherDisplay:10.37 W/m2 FEW
13:32 -22.4 °C -23.2 °C 34212.1 hPa ENE 3.1 km/h 6 km/h 90% 0 mm WeatherDisplay:10.37 W/m2 FEW
13:37 -22.4 °C -23.1 °C 34212.1 hPa ENE 4.2 km/h 15 km/h 90% 0 mm WeatherDisplay:10.37 W/m2 FEW
13:42 -22.4 °C -23.1 °C 34212.1 hPa ENE 6.3 km/h 11.9 km/h 90% 0 mm WeatherDisplay:10.37 W/m2 FEW
13:47 -22.4 °C -23.1 °C 34212.1 hPa ENE 8.9 km/h 11.9 km/h 90% 0 mm WeatherDisplay:10.37 W/m2 FEW
13:52 -22.4 °C -23.1 °C 34212.1 hPa ENE 9.8 km/h 15 km/h 90% 0 mm WeatherDisplay:10.37 W/m2 FEW
13:57 -22.4 °C -23.1 °C 34212.1 hPa ENE 9.7 km/h 11.9 km/h 90% 0 mm WeatherDisplay:10.37 W/m2 FEW
14:02 -22.3 °C -23.1 °C 34212.1 hPa ENE 6.4 km/h 10.3 km/h 90% 0 mm WeatherDisplay:10.37 W/m2 FEW
14:07 -22.3 °C -23.1 °C 34212.1 hPa ENE 1.3 km/h 6 km/h 90% 0 mm WeatherDisplay:10.37 W/m2 FEW
14:12 -22.3 °C -23.1 °C 34212.1 hPa ENE 2.3 km/h 9 km/h 90% 0 mm WeatherDisplay:10.37 W/m2 FEW
14:17 -22.3 °C -23.1 °C 34212.1 hPa ENE 1.6 km/h 11.9 km/h 90% 0 mm WeatherDisplay:10.37 W/m2 FEW
14:22 -22.3 °C -23 °C 34212.1 hPa ENE 2.1 km/h 9 km/h 90% 0 mm WeatherDisplay:10.37 W/m2 FEW
14:27 -22.3 °C -22.9 °C 34212.1 hPa ENE 4.7 km/h 10.3 km/h 91% 0 mm WeatherDisplay:10.37 W/m2 FEW
14:32 -22.3 °C -23 °C 34212.1 hPa ENE 6 km/h 9 km/h 91% 0 mm WeatherDisplay:10.37 W/m2 FEW
14:37 -22.3 °C -23 °C 34212.1 hPa ENE 9.3 km/h 15 km/h 91% 0 mm WeatherDisplay:10.37 W/m2 FEW
14:42 -22.3 °C -23 °C 34198.6 hPa ENE 3.1 km/h 10.3 km/h 91% 0 mm WeatherDisplay:10.37 W/m2 FEW
14:47 -22.3 °C -23 °C 34198.6 hPa ENE 6.9 km/h 9 km/h 91% 0 mm WeatherDisplay:10.37 W/m2 FEW
14:52 -22.3 °C -23 °C 34198.6 hPa Calm   5.1 km/h 91% 0 mm WeatherDisplay:10.37 W/m2 FEW
14:57 -22.3 °C -22.9 °C 34198.6 hPa ENE 5 km/h 9 km/h 91% 0 mm WeatherDisplay:10.37 W/m2 FEW
15:02 -22.3 °C -22.9 °C 34198.6 hPa ENE 1.3 km/h 9 km/h 91% 0 mm WeatherDisplay:10.37 W/m2 FEW
15:07 -22.3 °C -22.9 °C 34198.6 hPa ENE 5 km/h 9 km/h 91% 0 mm WeatherDisplay:10.37 W/m2 FEW
15:12 -22.3 °C -22.9 °C 34198.6 hPa ENE 0.5 km/h 9 km/h 91% 0 mm WeatherDisplay:10.37 W/m2 FEW
15:17 -22.3 °C -22.9 °C 34198.6 hPa ENE 6.3 km/h 9 km/h 91% 0 mm WeatherDisplay:10.37 W/m2 FEW
15:22 -22.3 °C -23 °C 34198.6 hPa ENE 3.1 km/h 9 km/h 90% 0 mm WeatherDisplay:10.37 W/m2 FEW
15:27 -22.3 °C -23 °C 34198.6 hPa Calm   3.1 km/h 90% 0 mm WeatherDisplay:10.37 W/m2 FEW
15:32 -22.3 °C -22.9 °C 34198.6 hPa ENE 0.5 km/h 6 km/h 91% 0 mm WeatherDisplay:10.37 W/m2 FEW
15:38 -22.3 °C -22.9 °C 34198.6 hPa Calm   3.1 km/h 91% 0 mm WeatherDisplay:10.37 W/m2 FEW
15:43 -22.3 °C -22.9 °C 34198.6 hPa ENE 0.3 km/h 9 km/h 91% 0 mm WeatherDisplay:10.37 W/m2 FEW
15:48 -22.3 °C -22.9 °C 34198.6 hPa ENE 4.3 km/h 9 km/h 91% 0 mm WeatherDisplay:10.37 W/m2 FEW
15:53 -22.3 °C -22.9 °C 34198.6 hPa ENE 5.5 km/h 9 km/h 91% 0 mm WeatherDisplay:10.37 W/m2 FEW
15:58 -22.2 °C -22.9 °C 34198.6 hPa ENE 7.6 km/h 9 km/h 91% 0 mm WeatherDisplay:10.37 W/m2 FEW
16:03 -22.2 °C -22.9 °C 34198.6 hPa ENE 8.9 km/h 10.3 km/h 90% 0 mm WeatherDisplay:10.37 W/m2 FEW
16:08 -22.2 °C -22.9 °C 34198.6 hPa ENE 6.3 km/h 15 km/h 90% 0 mm WeatherDisplay:10.37 W/m2 FEW
16:13 -22.3 °C -22.9 °C 34198.6 hPa ENE 6 km/h 11.9 km/h 91% 0 mm WeatherDisplay:10.37 W/m2 FEW
16:18 -22.3 °C -22.9 °C 34188.4 hPa NE 3.1 km/h 9 km/h 91% 0 mm WeatherDisplay:10.37 W/m2 FEW
16:23 -22.3 °C -22.9 °C 34188.4 hPa NE 4.3 km/h 10.3 km/h 91% 0 mm WeatherDisplay:10.37 W/m2 FEW
16:28 -22.3 °C -22.9 °C 34188.4 hPa NE 0.5 km/h 6 km/h 91% 0 mm WeatherDisplay:10.37 W/m2 FEW
16:33 -22.3 °C -22.9 °C 34188.4 hPa NE 1.8 km/h 9 km/h 91% 0 mm WeatherDisplay:10.37 W/m2 FEW
16:38 -22.3 °C -23 °C 34188.4 hPa NE 0.5 km/h 9 km/h 91% 0 mm WeatherDisplay:10.37 W/m2 FEW
16:43 -22.3 °C -23 °C 34188.4 hPa NE 1.8 km/h 10.3 km/h 91% 0 mm WeatherDisplay:10.37 W/m2 FEW
16:48 -22.3 °C -23 °C 34188.4 hPa NE 6.3 km/h 11.9 km/h 91% 0 mm WeatherDisplay:10.37 W/m2 FEW
16:53 -22.3 °C -23 °C 34188.4 hPa NE 3.9 km/h 11.9 km/h 91% 0 mm WeatherDisplay:10.37 W/m2 FEW
16:58 -22.3 °C -23 °C 34188.4 hPa NE 6.4 km/h 9 km/h 91% 0 mm WeatherDisplay:10.37 W/m2 FEW
17:03 -22.3 °C -23 °C 34188.4 hPa ENE 10.1 km/h 17.9 km/h 91% 0 mm WeatherDisplay:10.37 W/m2 FEW
17:08 -22.3 °C -23 °C 34188.4 hPa ENE 3.9 km/h 9 km/h 91% 0 mm WeatherDisplay:10.37 W/m2 FEW
17:13 -22.3 °C -23 °C 34188.4 hPa ENE 2.1 km/h 9 km/h 91% 0 mm WeatherDisplay:10.37 W/m2 FEW
17:18 -22.3 °C -23 °C 34178.3 hPa ENE 2.9 km/h 9 km/h 91% 0 mm WeatherDisplay:10.37 W/m2 FEW
17:23 -22.3 °C -23 °C 34188.4 hPa ENE 6.3 km/h 10.3 km/h 91% 0 mm WeatherDisplay:10.37 W/m2 FEW
17:28 -22.3 °C -23 °C 34188.4 hPa ENE 0.8 km/h 7.7 km/h 91% 0 mm WeatherDisplay:10.37 W/m2 FEW
17:33 -22.3 °C -23 °C 34188.4 hPa ENE 6.9 km/h 11.9 km/h 91% 0 mm WeatherDisplay:10.37 W/m2 FEW
17:38 -22.3 °C -23 °C 34188.4 hPa Calm   3.1 km/h 91% 0 mm WeatherDisplay:10.37 W/m2 FEW
17:43 -22.3 °C -23 °C 34188.4 hPa ENE 8.2 km/h 11.9 km/h 91% 0 mm WeatherDisplay:10.37 W/m2 FEW
17:48 -22.3 °C -23 °C 34188.4 hPa ENE 2.6 km/h 9 km/h 91% 0 mm WeatherDisplay:10.37 W/m2 FEW
17:53 -22.3 °C -23 °C 34188.4 hPa ENE 8 km/h 15 km/h 91% 0 mm WeatherDisplay:10.37 W/m2 FEW
17:58 -22.3 °C -23 °C 34188.4 hPa ENE 3.4 km/h 9 km/h 91% 0 mm WeatherDisplay:10.37 W/m2 FEW
18:03 -22.3 °C -23 °C 34188.4 hPa ENE 9 km/h 15 km/h 91% 0 mm WeatherDisplay:10.37 W/m2 FEW
18:08 -22.3 °C -23 °C 34188.4 hPa ENE 3.1 km/h 9 km/h 91% 0 mm WeatherDisplay:10.37 W/m2 FEW
18:13 -22.3 °C -23 °C 34188.4 hPa ENE 9 km/h 15 km/h 91% 0 mm WeatherDisplay:10.37 W/m2 FEW
18:18 -22.3 °C -23 °C 34188.4 hPa Calm     91% 0 mm WeatherDisplay:10.37 W/m2 FEW
18:23 -22.3 °C -23 °C 34188.4 hPa ENE 6.4 km/h 9 km/h 91% 0 mm WeatherDisplay:10.37 W/m2 FEW
18:28 -22.3 °C -23 °C 34188.4 hPa ENE 0.3 km/h 3.1 km/h 91% 0 mm WeatherDisplay:10.37 W/m2 FEW
18:33 -22.3 °C -23 °C 34188.4 hPa ENE 8 km/h 9 km/h 91% 0 mm WeatherDisplay:10.37 W/m2 FEW
18:38 -22.3 °C -23 °C 34188.4 hPa ENE 5 km/h 11.9 km/h 91% 0 mm WeatherDisplay:10.37 W/m2 FEW
18:43 -22.3 °C -23 °C 34188.4 hPa ENE 1.6 km/h 6 km/h 91% 0 mm WeatherDisplay:10.37 W/m2 FEW
18:48 -22.3 °C -23 °C 34188.4 hPa NE 5.5 km/h 10.3 km/h 91% 0 mm WeatherDisplay:10.37 W/m2 FEW
18:53 -22.3 °C -23 °C 34188.4 hPa ENE 4.3 km/h 12.9 km/h 91% 0 mm WeatherDisplay:10.37 W/m2 FEW
18:58 -22.3 °C -23 °C 34188.4 hPa ENE 8 km/h 15 km/h 91% 0 mm WeatherDisplay:10.37 W/m2 FEW
19:03 -22.3 °C -23 °C 34188.4 hPa ENE 4.7 km/h 9 km/h 91% 0 mm WeatherDisplay:10.37 W/m2 FEW
19:08 -22.3 °C -23 °C 34188.4 hPa NE 5.1 km/h 9 km/h 91% 0 mm WeatherDisplay:10.37 W/m2 FEW
19:13 -22.3 °C -23 °C 34178.3 hPa NE 0.3 km/h 6 km/h 91% 0 mm WeatherDisplay:10.37 W/m2 FEW
19:18 -22.3 °C -23 °C 34178.3 hPa NE 6 km/h 11.9 km/h 91% 0 mm WeatherDisplay:10.37 W/m2 FEW
19:23 -22.3 °C -23 °C 34178.3 hPa ENE 9.8 km/h 15 km/h 91% 0 mm WeatherDisplay:10.37 W/m2 FEW
19:28 -22.3 °C -23 °C 34178.3 hPa ENE 5.1 km/h 15 km/h 91% 0 mm WeatherDisplay:10.37 W/m2 FEW
19:33 -22.3 °C -23 °C 34178.3 hPa ENE 6.9 km/h 9 km/h 91% 0 mm WeatherDisplay:10.37 W/m2 FEW
19:38 -22.3 °C -23 °C 34178.3 hPa ENE 6.8 km/h 9 km/h 91% 0 mm WeatherDisplay:10.37 W/m2 FEW
19:43 -22.3 °C -23 °C 34178.3 hPa ENE 7.2 km/h 15 km/h 91% 0 mm WeatherDisplay:10.37 W/m2 FEW
19:48 -22.3 °C -23 °C 34178.3 hPa ENE 5.6 km/h 9 km/h 91% 7.62 mm WeatherDisplay:10.37 W/m2 RA
19:53 -22.3 °C -23 °C 34178.3 hPa NE 10.1 km/h 17.9 km/h 91% 7.62 mm WeatherDisplay:10.37 W/m2 RA
19:58 -22.3 °C -23 °C 34178.3 hPa NE 5.6 km/h 11.9 km/h 91% 7.62 mm WeatherDisplay:10.37 W/m2 FEW
20:03 -22.3 °C -23 °C 34178.3 hPa ENE 6.4 km/h 9 km/h 91% 7.62 mm WeatherDisplay:10.37 W/m2 FEW
20:08 -22.3 °C -23 °C 34178.3 hPa ENE 2.3 km/h 9 km/h 91% 7.62 mm WeatherDisplay:10.37 W/m2 FEW
20:13 -22.3 °C -23 °C 34178.3 hPa ENE 7.2 km/h 12.9 km/h 91% 7.62 mm WeatherDisplay:10.37 W/m2 FEW
20:18 -22.3 °C -23 °C 34164.7 hPa ENE 4.2 km/h 11.9 km/h 91% 7.62 mm WeatherDisplay:10.37 W/m2 FEW
20:23 -22.3 °C -23 °C 34178.3 hPa ENE 7.7 km/h 11.9 km/h 91% 7.62 mm WeatherDisplay:10.37 W/m2 FEW
20:28 -22.3 °C -23 °C 34178.3 hPa ENE 7.2 km/h 11.9 km/h 91% 7.62 mm WeatherDisplay:10.37 W/m2 FEW
20:33 -22.3 °C -23 °C 34178.3 hPa ENE 2.6 km/h 9 km/h 91% 7.62 mm WeatherDisplay:10.37 W/m2 FEW
20:38 -22.3 °C -23 °C 34178.3 hPa ENE 6.8 km/h 9 km/h 91% 7.62 mm WeatherDisplay:10.37 W/m2 FEW
20:43 -22.4 °C -23.1 °C 34164.7 hPa ENE 6.8 km/h 9 km/h 91% 7.62 mm WeatherDisplay:10.37 W/m2 FEW
20:48 -22.4 °C -22.9 °C 34178.3 hPa ENE 6.3 km/h 11.9 km/h 92% 0 mm WeatherDisplay:10.37 W/m2 FEW
20:53 -22.4 °C -22.9 °C 34178.3 hPa ENE 6.8 km/h 12.9 km/h 92% 0 mm WeatherDisplay:10.37 W/m2 FEW
20:58 -22.4 °C -22.9 °C 34178.3 hPa ENE 3.7 km/h 9 km/h 92% 0 mm WeatherDisplay:10.37 W/m2 FEW
21:03 -22.4 °C -23.1 °C 34164.7 hPa ENE 5.1 km/h 9 km/h 91% 0 mm WeatherDisplay:10.37 W/m2 FEW
21:08 -22.3 °C -22.9 °C 34164.7 hPa ENE 3.4 km/h 9 km/h 92% 0 mm WeatherDisplay:10.37 W/m2 FEW
21:13 -22.3 °C -23 °C 34164.7 hPa ENE 5.6 km/h 9 km/h 91% 0 mm WeatherDisplay:10.37 W/m2 FEW
21:18 -22.3 °C -23 °C 34164.7 hPa ENE 3.1 km/h 9 km/h 91% 0 mm WeatherDisplay:10.37 W/m2 FEW
21:23 -22.3 °C -23 °C 34164.7 hPa Calm     91% 0 mm WeatherDisplay:10.37 W/m2 FEW
21:28 -22.3 °C -23 °C 34164.7 hPa ENE 1 km/h 9 km/h 91% 0 mm WeatherDisplay:10.37 W/m2 FEW
21:33 -22.3 °C -23 °C 34164.7 hPa ENE 2.1 km/h 9 km/h 91% 0 mm WeatherDisplay:10.37 W/m2 FEW
21:38 -22.3 °C -22.9 °C 34164.7 hPa Calm     92% 0 mm WeatherDisplay:10.37 W/m2 FEW
21:43 -22.3 °C -22.9 °C 34164.7 hPa Calm     92% 0 mm WeatherDisplay:10.37 W/m2 FEW
21:48 -22.3 °C -23 °C 34164.7 hPa ENE 4.2 km/h 9 km/h 91% 7.62 mm WeatherDisplay:10.37 W/m2 RA
21:53 -22.3 °C -23 °C 34164.7 hPa ENE 1.6 km/h 6 km/h 91% 7.62 mm WeatherDisplay:10.37 W/m2 RA
21:58 -22.3 °C -23 °C 34164.7 hPa Calm     91% 7.62 mm WeatherDisplay:10.37 W/m2 FEW
22:03 -22.3 °C -22.9 °C 34164.7 hPa ENE 5.1 km/h 9 km/h 92% 7.62 mm WeatherDisplay:10.37 W/m2 FEW
22:08 -22.3 °C -23 °C 34164.7 hPa ENE 5 km/h 9 km/h 91% 7.62 mm WeatherDisplay:10.37 W/m2 FEW
22:13 -22.3 °C -23 °C 34164.7 hPa ENE 3.9 km/h 9 km/h 91% 7.62 mm WeatherDisplay:10.37 W/m2 FEW
22:18 -22.3 °C -23 °C 34164.7 hPa Calm     91% 7.62 mm WeatherDisplay:10.37 W/m2 FEW
22:23 -22.3 °C -23 °C 34164.7 hPa ENE 5 km/h 9 km/h 91% 7.62 mm WeatherDisplay:10.37 W/m2 FEW
22:28 -22.3 °C -23 °C 34164.7 hPa Calm     91% 7.62 mm WeatherDisplay:10.37 W/m2 FEW
22:33 -22.3 °C -23 °C 34164.7 hPa Calm     91% 7.62 mm WeatherDisplay:10.37 W/m2 FEW
22:38 -22.4 °C -23.1 °C 34164.7 hPa ENE 2.6 km/h 9 km/h 91% 7.62 mm WeatherDisplay:10.37 W/m2 FEW
22:44 -22.4 °C -23.1 °C 34164.7 hPa ENE 3.4 km/h 7.7 km/h 91% 7.62 mm WeatherDisplay:10.37 W/m2 FEW
22:50 -22.4 °C -23.1 °C 34164.7 hPa ENE 2.3 km/h 6 km/h 91% 0 mm WeatherDisplay:10.37 W/m2 FEW
22:55 -22.4 °C -23.1 °C 34164.7 hPa Calm     91% 0 mm WeatherDisplay:10.37 W/m2 FEW
23:00 -22.4 °C -23.2 °C 34164.7 hPa Calm   9 km/h 91% 0 mm WeatherDisplay:10.37 W/m2 FEW
23:05 -22.5 °C -23.2 °C 34178.3 hPa Calm     91% 0 mm WeatherDisplay:10.37 W/m2 FEW
23:10 -22.5 °C -23.2 °C 34178.3 hPa ENE 5.6 km/h 9 km/h 91% 0 mm WeatherDisplay:10.37 W/m2 FEW
23:15 -22.6 °C -23.2 °C 34178.3 hPa Calm     91% 0 mm WeatherDisplay:10.37 W/m2 FEW
23:20 -22.6 °C -23.2 °C 34178.3 hPa ENE 1.3 km/h 6 km/h 91% 0 mm WeatherDisplay:10.37 W/m2 FEW
23:25 -22.6 °C -23.2 °C 34178.3 hPa Calm     91% 0 mm WeatherDisplay:10.37 W/m2 FEW
23:30 -22.6 °C -23.2 °C 34178.3 hPa ENE 1 km/h 7.7 km/h 91% 0 mm WeatherDisplay:10.37 W/m2 FEW
23:35 -22.6 °C -23.1 °C 34178.3 hPa Calm     92% 0 mm WeatherDisplay:10.37 W/m2 FEW
23:40 -22.6 °C -23.1 °C 34178.3 hPa ENE 0.3 km/h 5.1 km/h 92% 0 mm WeatherDisplay:10.37 W/m2 FEW
23:45 -22.6 °C -23.2 °C 34178.3 hPa Calm   6 km/h 92% 0 mm WeatherDisplay:10.37 W/m2 FEW
23:50 -22.6 °C -23.3 °C 34178.3 hPa Calm     91% 0 mm WeatherDisplay:10.37 W/m2 FEW
23:55 -22.6 °C -23.3 °C 34178.3 hPa Calm     91% 0 mm WeatherDisplay:10.37 W/m2 FEW
Tuulensuunkaari, Veikkola, Suomi
Compliments of Weather Underground - 2.75 mb